HDT,Max TemperatureF,Mean TemperatureF,Min TemperatureF,Max Dew PointF,MeanDew PointF,Min DewpointF,Max Humidity, Mean Humidity, Min Humidity, Max Sea Level PressureIn, Mean Sea Level PressureIn, Min Sea Level PressureIn, Max VisibilityMiles, Mean VisibilityMiles, Min VisibilityMiles, Max Wind SpeedMPH, Mean Wind SpeedMPH, Max Gust SpeedMPH,PrecipitationIn, CloudCover, Events, WindDirDegrees
2013-8-1,55,52,48,50,48,46,94,85,71,29.85,29.82,29.80,10,8,2,25,16,34,0.01,8,,343
2013-8-2,57,52,48,48,47,46,93,82,72,29.88,29.86,29.83,10,10,9,28,16,36,0.00,8,,283
2013-8-3,55,50,46,48,46,45,100,88,75,29.89,29.86,29.82,10,9,1,20,11,22,0.00,8,,240
2013-8-4,53,50,48,50,48,46,100,90,74,29.92,29.81,29.75,10,9,2,17,5,23,0.00,8,,65
2013-8-5,60,54,48,46,45,43,93,76,48,30.11,30.04,29.93,10,10,3,21,10,23,0.00,5,,355
2013-8-6,53,48,44,50,45,43,94,85,68,30.10,29.97,29.84,10,9,2,21,11,25,0.00,8,,252
2013-8-7,55,50,46,52,49,45,100,90,75,29.83,29.70,29.65,10,8,2,25,14,30,0.00,8,,298
2013-8-8,59,52,46,48,45,43,93,75,48,29.88,29.83,29.78,10,10,9,25,11,32,0.00,5,,261
2013-8-9,59,52,44,52,47,43,94,83,70,30.01,29.92,29.86,10,10,10,29,13,38,0.00,6,,326
2013-8-10,55,50,46,48,46,45,94,86,75,30.07,30.05,30.02,10,10,5,12,5,,0.00,7,,82
2013-8-11,53,50,46,50,47,45,94,84,74,30.05,29.75,29.31,10,8,2,39,15,51,0.12,8,,121
2013-8-12,55,52,48,54,49,43,94,87,68,29.40,29.27,29.21,10,9,3,33,13,41,0.02,7,,203
2013-8-13,55,52,48,48,46,43,88,82,68,29.59,29.53,29.39,10,10,5,40,33,58,0.00,7,,245
2013-8-14,55,50,46,48,46,45,93,84,68,29.59,29.54,29.50,10,9,2,43,33,53,0.00,8,,242
2013-8-15,51,48,46,46,46,45,93,87,82,29.88,29.66,29.53,10,7,2,24,17,34,0.02,8,,279
2013-8-16,55,52,48,48,46,43,93,81,62,30.22,30.04,29.88,10,10,7,25,15,30,0.01,7,,332
2013-8-17,55,48,42,48,45,37,100,82,62,30.37,30.28,30.22,10,10,3,23,7,26,0.00,6,,302
2013-8-18,57,48,39,48,43,36,100,84,63,30.40,30.38,30.35,10,10,5,22,6,26,0.00,5,,223
2013-8-19,55,50,44,46,44,43,93,83,62,30.39,30.34,30.30,10,10,10,25,13,29,0.00,7,,246
2013-8-20,66,56,46,57,50,43,94,83,69,30.31,30.19,30.11,10,10,10,23,12,30,0.00,8,,227
2013-8-21,71,61,51,64,59,50,94,84,69,30.12,30.10,30.09,10,10,9,21,12,22,0.00,7,,256
2013-8-22,66,62,57,59,57,54,94,83,73,30.12,30.11,30.10,10,10,10,20,12,24,0.00,7,,250
2013-8-23,60,58,57,59,56,54,94,90,82,30.11,30.02,29.94,10,7,2,21,13,28,0.26,8,,220
2013-8-24,66,60,53,63,57,52,94,91,83,29.96,29.92,29.86,10,7,1,36,19,50,0.08,7,,239
2013-8-25,62,58,55,61,56,52,94,91,85,29.97,29.92,29.84,10,9,2,38,15,47,0.01,7,,237
2013-8-26,60,55,50,59,51,46,94,88,74,30.11,29.99,29.81,10,8,2,45,23,56,0.33,7,,202
2013-8-27,69,63,57,64,58,55,94,91,83,30.02,29.87,29.67,10,7,2,34,19,44,0.16,8,,249
2013-8-28,59,50,42,57,46,39,100,86,71,30.08,29.92,29.67,10,7,2,24,14,30,0.53,7,,9
2013-8-29,55,47,39,54,45,36,94,86,75,30.09,29.98,29.85,10,10,4,25,9,44,0.28,6,,174
2013-8-30,62,55,48,57,55,50,94,88,72,29.93,29.88,29.84,10,10,2,22,13,26,0.01,5,,252
2013-8-31,62,54,46,59,52,45,94,90,82,29.93,29.65,29.39,10,9,2,23,9,38,0.40,6,,197